User: anonymous   Login
Location: Geremba
(10.4250°N, 67.2394°W)
Time: 09:16:17
(UTC+00:00)
Language:

Cosmos 1244 Rocket - Orbit

View from above orbital plane
View from above orbital plane
View from above satellite
View from above satellite

Ground track
Ground track

The orbit data is extracted from the following two-line orbital elements,

1 12298U 81013B   24280.89192808  .00000205  00000-0  19295-3 0  9992
2 12298  82.9495 148.0696 0029566 346.1377  24.2172 13.76833281192174
Epoch (UTC): 06 October 2024 21:24:22
Eccentricity: 0.0029566
inclination: 82.9495°
perigee height: 953 km
apogee height: 997 km
right ascension of ascending node: 148.0696°
argument of perigee: 346.1377°
revolutions per day: 13.76833281
mean anomaly at epoch: 24.2172°
orbit number at epoch: 19217

The dashed part of the orbit path shows where the satellite is in the earth's shadow,  

DLR